When you browse on this site, cookies collect data to enhance your experience and personalize the content and advertising you see.
Visit our Privacy Policy to learn more. By continuing to use the site, you agree to this use of cookies and data.
  • In Czech Republic
  • List of Countries
  • For 7 days
  • Water Temperature
  • Satellite Maps
  • Weather Map
  • Weather Widgets
  • user-avatar
    Login

    Hourly Weather Newcastle

    Today, 19 April, Friday

    Time Temperature Precipitation Wind Pressure Humidity
    00:00 +1°C° 1.7 mm 5 mps 755 mmHg 85%
    01:00 +1°C° 1.7 mm 6 mps 754 mmHg 87%
    02:00 +1°C° 0 mm 6 mps 753 mmHg 90%
    03:00 +2°C° 1.7 mm 5 mps 752 mmHg 91%
    04:00 +3°C° 1.7 mm 5 mps 751 mmHg 93%
    05:00 +5°C° 1.7 mm 5 mps 750 mmHg 95%
    06:00 +7°C° 0.7 mm 5 mps 749 mmHg 94%
    07:00 +8°C° 0.7 mm 5 mps 749 mmHg 94%
    08:00 +9°C° 0.7 mm 5 mps 748 mmHg 93%
    09:00 +11°C° 0.4 mm 6 mps 748 mmHg 91%
    10:00 +13°C° 0.4 mm 6 mps 748 mmHg 89%
    11:00 +14°C° 0.4 mm 6 mps 748 mmHg 86%
    12:00 +15°C° 0 mm 5 mps 748 mmHg 85%
    13:00 +16°C° 0 mm 5 mps 748 mmHg 84%
    14:00 +16°C° 0 mm 5 mps 748 mmHg 83%
    15:00 +15°C° 0.1 mm 4 mps 748 mmHg 86%
    16:00 +16°C° 0.1 mm 3 mps 749 mmHg 89%
    17:00 +14°C° 0.1 mm 3 mps 749 mmHg 92%
    18:00 +13°C° 0.6 mm 3 mps 749 mmHg 93%
    19:00 +12°C° 0.6 mm 3 mps 750 mmHg 95%
    20:00 +11°C° 0.6 mm 3 mps 750 mmHg 96%
    21:00 +9°C° 0.8 mm 3 mps 751 mmHg 94%
    22:00 +8°C° 0.8 mm 3 mps 751 mmHg 93%
    23:00 +5°C° 0.8 mm 3 mps 752 mmHg 91%

    Tomorrow, 20 April, Saturday

    Time Temperature Precipitation Wind Pressure Humidity
    00:00 +5°C° 1.5 mm 3 mps 752 mmHg 93%
    01:00 +5°C° 1.5 mm 3 mps 753 mmHg 94%
    02:00 +6°C° 1.5 mm 2 mps 754 mmHg 95%
    03:00 +5°C° 1.8 mm 3 mps 754 mmHg 95%
    04:00 +4°C° 1.8 mm 3 mps 754 mmHg 96%
    05:00 +4°C° 1.8 mm 3 mps 755 mmHg 96%
    06:00 +4°C° 2.3 mm 3 mps 755 mmHg 96%
    07:00 +4°C° 2.3 mm 3 mps 756 mmHg 95%
    08:00 +4°C° 2.3 mm 3 mps 756 mmHg 95%
    09:00 +4°C° 3.1 mm 3 mps 757 mmHg 95%
    10:00 +3°C° 3.1 mm 3 mps 757 mmHg 95%
    11:00 +3°C° 3.1 mm 3 mps 758 mmHg 95%
    12:00 +3°C° 2 mm 3 mps 758 mmHg 95%
    13:00 +3°C° 2 mm 3 mps 759 mmHg 95%
    14:00 +3°C° 2 mm 3 mps 759 mmHg 95%
    15:00 +3°C° 1.8 mm 3 mps 759 mmHg 95%
    16:00 +3°C° 1.8 mm 3 mps 759 mmHg 95%
    17:00 +3°C° 1.8 mm 3 mps 760 mmHg 95%
    18:00 +3°C° 1 mm 3 mps 760 mmHg 96%
    19:00 +3°C° 1 mm 3 mps 760 mmHg 96%
    20:00 +3°C° 1 mm 3 mps 760 mmHg 96%
    21:00 +4°C° 0.1 mm 2 mps 760 mmHg 97%
    22:00 +4°C° 0.1 mm 2 mps 760 mmHg 97%
    23:00 +4°C° 0.1 mm 2 mps 760 mmHg 98%

    Day after tomorrow, 21 April, Sunday

    Time Temperature Precipitation Wind Pressure Humidity
    00:00 +3°C° 0.2 mm 2 mps 760 mmHg 98%
    01:00 +4°C° 0.2 mm 1 mps 760 mmHg 98%
    02:00 +4°C° 0.2 mm 1 mps 760 mmHg 98%
    03:00 +5°C° 0 mm 1 mps 760 mmHg 98%
    04:00 +6°C° 0 mm 1 mps 759 mmHg 98%
    05:00 +6°C° 0 mm 1 mps 759 mmHg 98%
    06:00 +8°C° 0.1 mm 1 mps 759 mmHg 98%
    07:00 +9°C° 0.1 mm 1 mps 759 mmHg 98%
    08:00 +10°C° 0.1 mm 2 mps 759 mmHg 98%
    09:00 +13°C° 0.1 mm 2 mps 758 mmHg 96%
    10:00 +14°C° 0.1 mm 3 mps 758 mmHg 94%
    11:00 +17°C° 0.1 mm 4 mps 757 mmHg 91%
    12:00 +17°C° 0.2 mm 4 mps 757 mmHg 91%
    13:00 +16°C° 0.2 mm 5 mps 757 mmHg 90%
    14:00 +16°C° 0.2 mm 5 mps 757 mmHg 90%
    15:00 +16°C° 0 mm 5 mps 757 mmHg 88%
    16:00 +17°C° 0 mm 5 mps 756 mmHg 86%
    17:00 +17°C° 0 mm 5 mps 756 mmHg 85%
    18:00 +17°C° 0 mm 4 mps 757 mmHg 88%
    19:00 +15°C° 0 mm 4 mps 757 mmHg 91%
    20:00 +14°C° 0 mm 4 mps 758 mmHg 94%
    21:00 +13°C° 0 mm 3 mps 758 mmHg 94%
    22:00 +13°C° 0 mm 3 mps 758 mmHg 94%
    23:00 +13°C° 0 mm 3 mps 759 mmHg 95%

    22 April, Monday

    Time Temperature Precipitation Wind Pressure Humidity
    00:00 +12°C° 0 mm 3 mps 759 mmHg 95%
    01:00 +13°C° 0 mm 2 mps 758 mmHg 96%
    02:00 +12°C° 0 mm 2 mps 758 mmHg 97%
    03:00 +12°C° 0 mm 2 mps 758 mmHg 97%
    04:00 +12°C° 0 mm 2 mps 758 mmHg 97%
    05:00 +10°C° 0 mm 2 mps 758 mmHg 98%
    06:00 +12°C° 0 mm 1 mps 759 mmHg 95%
    07:00 +13°C° 0 mm 1 mps 759 mmHg 91%
    08:00 +14°C° 0 mm 0 mps 759 mmHg 88%
    09:00 +16°C° 0 mm 1 mps 759 mmHg 83%
    10:00 +18°C° 0 mm 1 mps 759 mmHg 77%
    11:00 +19°C° 0 mm 2 mps 759 mmHg 71%
    12:00 +18°C° 0 mm 2 mps 759 mmHg 75%
    13:00 +17°C° 0 mm 3 mps 759 mmHg 79%
    14:00 +16°C° 0 mm 3 mps 758 mmHg 82%
    15:00 +13°C° 0.2 mm 3 mps 758 mmHg 83%
    16:00 +11°C° 0.2 mm 4 mps 758 mmHg 85%
    17:00 +10°C° 0.2 mm 4 mps 757 mmHg 86%
    18:00 +7°C° 1.1 mm 4 mps 758 mmHg 87%
    19:00 +6°C° 1.1 mm 4 mps 758 mmHg 89%
    20:00 +5°C° 1.1 mm 4 mps 758 mmHg 90%
    21:00 +5°C° 1.5 mm 4 mps 758 mmHg 90%
    22:00 +5°C° 1.5 mm 4 mps 758 mmHg 91%
    23:00 +4°C° 1.5 mm 4 mps 757 mmHg 92%

    23 April, Tuesday

    Time Temperature Precipitation Wind Pressure Humidity
    00:00 +5°C° 0.2 mm 4 mps 757 mmHg 92%
    01:00 +5°C° 0.2 mm 4 mps 757 mmHg 93%
    02:00 +5°C° 0.2 mm 4 mps 756 mmHg 94%
    03:00 +5°C° 0.4 mm 4 mps 757 mmHg 93%
    04:00 +5°C° 0.4 mm 4 mps 757 mmHg 93%
    05:00 +4°C° 0.4 mm 4 mps 757 mmHg 93%
    06:00 +4°C° 0.1 mm 4 mps 757 mmHg 92%
    07:00 +4°C° 0.1 mm 4 mps 758 mmHg 92%
    08:00 +3°C° 0.1 mm 5 mps 758 mmHg 92%
    09:00 +3°C° 0.1 mm 5 mps 758 mmHg 91%
    10:00 +3°C° 0.1 mm 5 mps 758 mmHg 91%
    11:00 +2°C° 0.1 mm 5 mps 758 mmHg 90%
    12:00 +2°C° 0.1 mm 5 mps 758 mmHg 89%
    13:00 +2°C° 0.1 mm 5 mps 758 mmHg 88%
    14:00 +3°C° 0.1 mm 4 mps 758 mmHg 87%
    15:00 +3°C° 0 mm 4 mps 758 mmHg 85%
    16:00 +3°C° 0 mm 4 mps 758 mmHg 82%
    17:00 +3°C° 0 mm 4 mps 758 mmHg 80%
    18:00 +1°C° 0 mm 4 mps 758 mmHg 78%
    19:00 +2°C° 0 mm 3 mps 758 mmHg 77%
    20:00 +2°C° 0 mm 3 mps 758 mmHg 75%
    21:00 +1°C° 0 mm 3 mps 757 mmHg 76%
    22:00 +1°C° 0 mm 3 mps 757 mmHg 78%
    23:00 0°C° 0 mm 3 mps 757 mmHg 79%

    24 April, Wednesday

    Time Temperature Precipitation Wind Pressure Humidity
    00:00 0°C° 0 mm 3 mps 756 mmHg 82%
    01:00 0°C° 0 mm 3 mps 756 mmHg 84%
    02:00 0°C° 0 mm 3 mps 755 mmHg 86%
    03:00 0°C° 0 mm 3 mps 755 mmHg 88%
    04:00 0°C° 0 mm 3 mps 754 mmHg 90%
    05:00 0°C° 0 mm 3 mps 754 mmHg 92%
    06:00 +1°C° 0 mm 3 mps 754 mmHg 90%
    07:00 0°C° 0 mm 4 mps 754 mmHg 89%
    08:00 0°C° 0 mm 4 mps 754 mmHg 88%
    09:00 0°C° 0.5 mm 4 mps 753 mmHg 89%
    10:00 0°C° 0.5 mm 4 mps 753 mmHg 90%
    11:00 0°C° 0.5 mm 5 mps 752 mmHg 91%
    12:00 0°C° 0.6 mm 4 mps 752 mmHg 91%
    13:00 0°C° 0.6 mm 4 mps 751 mmHg 92%
    14:00 -1°C° 0.6 mm 4 mps 750 mmHg 92%
    15:00 -1°C° 1.3 mm 4 mps 750 mmHg 93%
    16:00 -1°C° 1.3 mm 4 mps 750 mmHg 93%
    17:00 -1°C° 1.3 mm 4 mps 749 mmHg 94%
    18:00 -1°C° 1 mm 4 mps 749 mmHg 94%
    19:00 -1°C° 1 mm 4 mps 749 mmHg 94%
    20:00 -1°C° 1 mm 4 mps 749 mmHg 94%
    21:00 -1°C° 0.3 mm 4 mps 748 mmHg 95%
    22:00 -1°C° 0.3 mm 4 mps 748 mmHg 95%
    23:00 -1°C° 0.3 mm 4 mps 748 mmHg 95%
    Show more